FW2254 Weather Reports


time (UTC)temp
F
wind
direction
speed
knots
gust
knots
rain 1hr
in
rain 24hr
in
rain mn
in
humidity
%
barometer
mb
20260502150106 61 25 0.0 0.0 0.00 0.01 0.00 86 1019.1
20260502123039 50 25 0.0 0.0 0.00 0.01 0.00 94 1018.0
20260502121508 50 25 0.0 0.0 0.00 0.01 0.00 94 1017.7
20260502114539 50 25 0.0 0.0 0.00 0.01 0.00 93 1017.4
20260502113031 50 25 0.0 0.0 0.00 0.01 0.00 93 1016.9
20260502111530 50 25 0.0 0.0 0.00 0.01 0.00 93 1016.7
20260502110029 51 25 0.0 0.0 0.00 0.01 0.00 93 1016.6
20260502104527 51 25 0.0 0.0 0.00 0.01 0.00 93 1016.7
20260502103025 51 25 0.0 0.0 0.00 0.01 0.00 93 1016.6
20260502101522 51 25 0.0 0.0 0.00 0.01 0.00 93 1016.6
20260502091515 52 25 0.0 0.0 0.00 0.01 0.00 93 1016.1
20260502071507 53 25 0.0 0.0 0.00 0.01 0.00 93 1016.0
20260502070004 53 25 0.0 0.0 0.00 0.01 0.00 93 1016.0
20260502064501 54 25 0.0 0.0 0.00 0.01 0.00 93 1016.2
20260502063002 54 25 0.0 0.0 0.00 0.01 0.00 93 1016.2
20260502061601 54 25 0.0 0.0 0.00 0.01 0.00 93 1016.3
20260502060101 54 25 0.0 0.0 0.00 0.01 0.00 93 1016.2
20260502054559 54 25 0.0 0.0 0.00 0.01 0.00 93 1016.2
20260502053102 54 25 0.0 0.0 0.00 0.01 0.00 92 1016.1
20260502051558 54 25 0.0 0.0 0.00 0.01 0.00 92 1016.1
20260502050053 54 25 0.0 0.0 0.00 0.01 0.00 92 1016.2
20260502044554 55 25 0.0 0.0 0.00 0.01 0.00 92 1016.1
20260502043055 55 25 0.0 0.0 0.00 0.01 0.00 92 1015.9
20260502041550 55 25 0.0 0.0 0.00 0.01 0.00 92 1016.0
20260502040043 56 25 0.0 0.0 0.00 0.01 0.00 92 1016.0
20260502034541 56 25 0.0 0.0 0.00 0.01 0.00 92 1015.8
20260502033041 56 25 0.0 0.0 0.00 0.01 0.00 92 1015.8
20260502031538 56 25 0.0 0.0 0.00 0.01 0.00 92 1015.6
20260502030035 56 25 0.0 0.0 0.00 0.01 0.00 92 1015.4
20260502024539 57 25 0.0 0.0 0.00 0.01 0.00 91 1015.3
20260502023032 57 25 0.0 0.0 0.00 0.01 0.00 91 1015.5
20260502021531 57 25 0.0 0.0 0.00 0.01 0.00 90 1015.3
20260502020026 57 25 0.0 0.0 0.00 0.01 0.00 90 1015.1
20260502014545 57 25 0.0 0.0 0.00 0.01 0.00 90 1015.1
20260502013023 58 25 0.0 0.0 0.00 0.01 0.00 90 1014.6
20260502011521 58 25 0.0 0.0 0.00 0.01 0.00 90 1014.8
20260502010015 58 25 0.0 0.0 0.00 0.01 0.00 89 1014.1
20260502004617 59 25 0.0 0.0 0.00 0.01 0.00 89 1013.9
20260502003015 59 25 0.0 0.0 0.00 0.01 0.00 89 1013.9
20260502001518 59 25 0.0 0.0 0.00 0.01 0.00 88 1013.6
20260502000029 59 25 0.0 0.0 0.00 0.01 0.00 88 1013.7
20260501234507 59 25 0.0 0.0 0.00 0.01 0.00 88 1013.6
20260501233007 59 25 0.0 0.0 0.00 0.01 0.00 86 1013.9
20260501231515 59 25 0.0 0.0 0.00 0.01 0.00 85 1013.3
20260501230105 60 25 0.0 0.0 0.00 0.01 0.01 84 1013.3
20260501224604 60 25 0.0 0.0 0.00 0.01 0.01 83 1013.3
20260501223102 60 25 0.0 0.0 0.00 0.01 0.01 83 1012.8
20260501221602 60 25 0.0 0.0 0.00 0.01 0.01 81 1012.8
20260501220100 60 25 0.0 0.9 0.00 0.01 0.01 80 1012.3
20260501214555 60 25 0.0 0.9 0.00 0.01 0.01 81 1011.5
20260501213059 60 25 0.0 2.6 0.00 0.01 0.01 80 1011.7
20260501211554 60 25 0.0 0.9 0.00 0.01 0.01 80 1012.1
20260501210053 60 25 0.0 1.7 0.00 0.01 0.01 78 1012.7
20260501204552 60 25 0.0 1.7 0.00 0.01 0.01 77 1013.1
20260501203050 60 25 0.0 1.7 0.00 0.01 0.01 78 1013.5
20260501201600 61 25 0.0 1.7 0.00 0.01 0.01 78 1012.8
20260501200047 60 25 0.9 3.5 0.00 0.01 0.01 78 1012.1
20260501194547 60 25 0.0 3.5 0.00 0.01 0.01 81 1011.9
20260501193046 60 25 0.0 2.6 0.00 0.01 0.01 82 1011.7
20260501191545 60 25 0.0 4.3 0.00 0.01 0.01 84 1012.0
20260501190042 59 25 0.0 3.5 0.00 0.06 0.01 85 1012.3
20260501184541 58 25 0.0 0.0 0.00 0.06 0.01 87 1012.8
20260501183048 55 25 0.0 0.0 0.00 0.06 0.01 94 1013.5
20260501181542 55 25 0.0 0.0 0.00 0.06 0.01 94 1013.7
20260501180045 55 25 0.0 0.0 0.00 0.06 0.01 94 1014.5
20260501174544 55 25 0.0 0.0 0.00 0.06 0.01 94 1014.4
20260501173037 55 25 0.0 0.0 0.00 0.06 0.01 95 1014.4
20260501171542 55 25 0.0 0.0 0.01 0.06 0.01 95 1014.8
20260501170036 55 25 0.0 0.0 0.01 0.06 0.01 95 1015.2
20260501164511 55 25 0.0 0.0 0.01 0.06 0.01 95 1015.0
20260501163004 54 25 0.0 0.0 0.01 0.06 0.01 94 1015.1
20260501161503 54 25 0.0 0.0 0.00 0.05 0.00 94 1015.6
20260501160001 54 25 0.0 0.0 0.00 0.05 0.00 94 1015.6
20260501154602 54 25 0.0 0.0 0.00 0.05 0.00 94 1015.9
20260501153111 54 25 0.0 0.0 0.00 0.05 0.00 93 1015.5
20260501151558 54 25 0.0 0.0 0.00 0.05 0.00 93 1015.4